TimeCEST,TemperatureF,Dew PointF,Humidity,Sea Level PressureIn,VisibilityMPH,Wind Direction,Wind SpeedMPH,Gust SpeedMPH,PrecipitationIn,Events,Conditions,WindDirDegrees,DateUTC
12:55 AM,59.0,51.8,77,29.86,6.2,NW,2.3,-,N/A,,Partly Cloudy,320,2012-10-15 22:55:00
1:55 AM,59.0,51.8,77,29.89,6.2,NNW,6.9,-,N/A,,Partly Cloudy,330,2012-10-15 23:55:00
2:00 AM,59,52,71,29.90,6,NNW,6.9,,,,Scattered Clouds,330,2012-10-16 00:00:00
2:55 AM,55.4,50.0,82,29.92,6.2,ENE,2.3,-,N/A,,Partly Cloudy,70,2012-10-16 00:55:00
3:55 AM,55.4,50.0,82,29.92,6.2,NNW,3.5,-,N/A,,Partly Cloudy,340,2012-10-16 01:55:00
4:55 AM,53.6,50.0,88,29.92,6.2,NW,3.5,-,N/A,,Partly Cloudy,320,2012-10-16 02:55:00
5:00 AM,54,50,82,29.93,6,NW,3.5,,,,Scattered Clouds,320,2012-10-16 03:00:00
6:55 AM,59.0,46.4,63,29.95,-9999.0,NNW,4.6,-,N/A,,Clear,340,2012-10-16 04:55:00
7:55 AM,57.2,50.0,77,29.95,6.2,NNW,6.9,-,N/A,,Partly Cloudy,340,2012-10-16 05:55:00
8:00 AM,57,49,68,29.96,12,NNW,6.9,,,,Scattered Clouds,340,2012-10-16 06:00:00
8:55 AM,60.8,51.8,72,29.98,6.2,NNE,4.6,-,N/A,,Partly Cloudy,20,2012-10-16 06:55:00
9:55 AM,62.6,50.0,63,30.01,6.2,NE,4.6,-,N/A,,Partly Cloudy,40,2012-10-16 07:55:00
11:00 AM,68,53,49,30.03,12,NNW,10.4,,,,Scattered Clouds,340,2012-10-16 09:00:00
12:55 PM,75.2,53.6,47,30.04,6.2,NW,16.1,-,N/A,,Scattered Clouds,310,2012-10-16 10:55:00
1:55 PM,73.4,53.6,50,30.04,6.2,NW,13.8,-,N/A,,Scattered Clouds,320,2012-10-16 11:55:00
2:00 PM,73,54,40,30.05,12,NW,13.8,,,,Partly Cloudy,320,2012-10-16 12:00:00
4:55 PM,71.6,57.2,60,30.04,6.2,NNW,16.1,-,N/A,,Scattered Clouds,330,2012-10-16 14:55:00
5:00 PM,72,57,49,30.05,12,NNW,16.1,,,,Mostly Cloudy,330,2012-10-16 15:00:00
5:55 PM,69.8,57.2,64,30.04,6.2,NNW,9.2,-,N/A,,Partly Cloudy,330,2012-10-16 15:55:00
7:55 PM,68.0,57.2,68,30.06,6.2,NNW,9.2,-,N/A,,Partly Cloudy,330,2012-10-16 17:55:00
8:00 PM,68,58,61,30.08,12,NNW,9.2,,,,Partly Cloudy,330,2012-10-16 18:00:00
8:55 PM,64.4,57.2,77,30.09,6.2,Calm,Calm,-,N/A,,Partly Cloudy,0,2012-10-16 18:55:00
9:55 PM,62.6,57.2,82,30.09,6.2,NNW,3.5,-,N/A,,Partly Cloudy,340,2012-10-16 19:55:00
10:55 PM,60.8,57.2,88,30.09,6.2,NNE,1.2,-,N/A,,Partly Cloudy,30,2012-10-16 20:55:00
11:00 PM,62,57,80,30.12,9,NNE,1.2,,,,Scattered Clouds,30,2012-10-16 21:00:00
11:55 PM,59.0,55.4,88,30.09,6.2,East,4.6,-,N/A,,Partly Cloudy,80,2012-10-16 21:55:00